Logansport, IN

5:30 PM EDT on May 23, 2017 (GMT -0400)
Logansport Municipal

Weather History for KGGP - July, 2013

Change the Weather History Date:

Wednesday, July 31, 2013

  Actual Average Record
Temperature  
Mean Temperature 68 °F -  
Max Temperature 73 °F 79 °F 87 °F (2015)
Min Temperature 62 °F 57 °F 51 °F (2014)
Cooling Degree Days 2    
Growing Degree Days 18 (Base 50)    
Moisture  
Dew Point 65 °F    
Average Humidity 94    
Maximum Humidity 100    
Minimum Humidity 83    
Precipitation  
Precipitation 0.00 in - - ()
Sea Level Pressure  
Sea Level Pressure 30.03 in    
Wind  
Wind Speed 4 mph (SSW)    
Max Wind Speed 9 mph    
Max Gust Speed -    
Visibility 5 miles    
Events Rain    
Averages and records for this station are not official NWS values.
T = Trace of Precipitation, MM = Missing Value Source: NWS Daily Summary

Daily Weather History Graph

Daily Weather History Graph

Search for Another Location

Airport or City:

Trip Planner

Search our weather history database for the weather conditions in past years. The results will help you decide how hot, cold, wet, or windy it might be!

Date:

Astronomy

Jul. 31, 2013 Rise Set
Actual Time 6:41 AM EDT 9:01 PM EDT
Civil Twilight 6:10 AM EDT 9:32 PM EDT
Nautical Twilight 5:32 AM EDT 10:10 PM EDT
Astronomical Twilight 4:50 AM EDT 10:52 PM EDT
Moon 1:36 AM EDT (7/31) 4:17 PM EDT (7/31)
Length of Visible Light 15h 21m
Length of Day
14h 20m
Waning Crescent, 32% of the Moon is Illuminated
Jul 31
Waning Crescent
Aug 6
New
Aug 14
First Quarter
Aug 20
Full
Aug 28
Last Quarter

Hourly Weather History & Observations

Time (EDT) Temp. Dew Point Humidity Pressure Visibility Wind Dir Wind Speed Gust Speed Precip Events Conditions
12:15 AM 62.6 °F 62.6 °F 100% 30.11 in 10.0 mi ESE 3.5 mph - N/A   Overcast
12:35 AM 62.6 °F 62.6 °F 100% 30.12 in 10.0 mi SSE 3.5 mph - N/A   Overcast
12:55 AM 64.4 °F 62.6 °F 94% 30.12 in 5.0 mi Calm Calm - N/A Rain Rain
1:15 AM 64.4 °F 62.6 °F 94% 30.12 in 5.0 mi Calm Calm - N/A Rain Rain
1:35 AM 62.6 °F 62.6 °F 100% 30.11 in 3.0 mi SSE 3.5 mph - N/A   Heavy Drizzle
1:55 AM 62.6 °F 62.6 °F 100% 30.11 in 2.5 mi SSE 3.5 mph - N/A   Heavy Drizzle
2:15 AM 64.4 °F 62.6 °F 94% 30.10 in 3.0 mi SSE 4.6 mph - N/A   Heavy Drizzle
2:55 AM 64.4 °F 62.6 °F 94% 30.09 in 2.0 mi SSE 3.5 mph - N/A   Heavy Drizzle
3:15 AM 64.4 °F 62.6 °F 94% 30.09 in 2.5 mi South 3.5 mph - N/A Rain Heavy Rain
3:35 AM 64.4 °F 62.6 °F 94% 30.09 in 2.5 mi Calm Calm - N/A Rain Rain
3:55 AM 64.4 °F 62.6 °F 94% 30.08 in 3.0 mi South 5.8 mph - N/A   Heavy Drizzle
4:15 AM 62.6 °F 62.6 °F 100% 30.08 in 2.0 mi South 3.5 mph - N/A Rain Heavy Rain
4:35 AM 62.6 °F 62.6 °F 100% 30.08 in 3.0 mi South 5.8 mph - N/A Rain Heavy Rain
4:55 AM 62.6 °F 62.6 °F 100% 30.07 in 3.0 mi SSE 5.8 mph - N/A   Heavy Drizzle
5:15 AM 62.6 °F 62.6 °F 100% 30.07 in 2.5 mi SSE 4.6 mph - N/A   Heavy Drizzle
5:35 AM 62.6 °F 62.6 °F 100% 30.07 in 2.5 mi SSE 5.8 mph - N/A Rain Rain
5:55 AM 62.6 °F 62.6 °F 100% 30.07 in 2.5 mi SSE 4.6 mph - N/A Rain Rain
6:15 AM 62.6 °F 62.6 °F 100% 30.07 in 2.0 mi SSE 4.6 mph - N/A Rain Rain
6:35 AM 62.6 °F 62.6 °F 100% 30.07 in 2.0 mi SE 4.6 mph - N/A   Heavy Drizzle
6:55 AM 62.6 °F 62.6 °F 100% 30.07 in 2.0 mi SE 4.6 mph - N/A   Heavy Drizzle
7:15 AM 62.6 °F 62.6 °F 100% 30.07 in 1.5 mi SE 4.6 mph - N/A   Heavy Drizzle
7:35 AM 62.6 °F 62.6 °F 100% 30.06 in 2.0 mi SE 4.6 mph - N/A   Drizzle
7:55 AM 62.6 °F 62.6 °F 100% 30.06 in 1.8 mi SSE 3.5 mph - N/A   Heavy Drizzle
8:15 AM 62.6 °F 62.6 °F 100% 30.06 in 1.5 mi South 3.5 mph - N/A   Heavy Drizzle
8:35 AM 62.6 °F 62.6 °F 100% 30.06 in 1.8 mi South 3.5 mph - N/A   Heavy Drizzle
8:55 AM 62.6 °F 62.6 °F 100% 30.06 in 2.5 mi SSE 3.5 mph - N/A   Drizzle
9:15 AM 62.6 °F 62.6 °F 100% 30.06 in 1.5 mi South 4.6 mph - N/A   Drizzle
9:35 AM 64.4 °F 62.6 °F 94% 30.06 in 1.5 mi South 4.6 mph - N/A   Overcast
9:55 AM 64.4 °F 62.6 °F 94% 30.06 in 1.2 mi South 5.8 mph - N/A Rain Rain
10:15 AM 64.4 °F 64.4 °F 100% 30.05 in 1.2 mi South 4.6 mph - N/A Rain Heavy Rain
10:35 AM 64.4 °F 64.4 °F 100% 30.06 in 1.5 mi SSW 4.6 mph - N/A   Heavy Drizzle
10:55 AM 64.4 °F 64.4 °F 100% 30.05 in 2.0 mi SSW 5.8 mph - N/A   Heavy Drizzle
11:15 AM 64.4 °F 64.4 °F 100% 30.05 in 1.5 mi SSW 5.8 mph - N/A   Heavy Drizzle
11:35 AM 66.2 °F 64.4 °F 94% 30.05 in 3.0 mi SSW 5.8 mph - N/A   Drizzle
11:55 AM 66.2 °F 64.4 °F 94% 30.04 in 1.8 mi SSW 6.9 mph - N/A   Heavy Drizzle
12:15 PM 66.2 °F 64.4 °F 94% 30.04 in 2.5 mi SSW 5.8 mph - N/A   Overcast
12:35 PM 66.2 °F 64.4 °F 94% 30.04 in 1.8 mi SW 5.8 mph - N/A   Overcast
12:55 PM 68.0 °F 66.2 °F 94% 30.03 in 1.0 mi SSW 3.5 mph - N/A   Drizzle
1:15 PM 68.0 °F 66.2 °F 94% 30.03 in 2.0 mi SW 4.6 mph - N/A   Light Drizzle
1:35 PM 68.0 °F 66.2 °F 94% 30.03 in 1.2 mi SW 5.8 mph - N/A   Drizzle
1:55 PM 68.0 °F 68.0 °F 100% 30.02 in 2.5 mi SW 5.8 mph - N/A   Overcast
2:15 PM 69.8 °F 68.0 °F 94% 30.02 in 5.0 mi SW 5.8 mph - N/A   Overcast
2:35 PM 69.8 °F 68.0 °F 94% 30.01 in 7.0 mi WSW 4.6 mph - N/A   Overcast
2:55 PM 69.8 °F 68.0 °F 94% 30.01 in 7.0 mi West 3.5 mph - N/A   Overcast
3:15 PM 71.6 °F 68.0 °F 88% 30.01 in 10.0 mi West 5.8 mph - N/A   Overcast
3:35 PM 71.6 °F 68.0 °F 88% 30.01 in 10.0 mi SW 4.6 mph - N/A   Overcast
3:55 PM 69.8 °F 68.0 °F 94% 30.01 in 10.0 mi WSW 4.6 mph - N/A   Overcast
4:15 PM 71.6 °F 68.0 °F 88% 30.00 in 10.0 mi WSW 5.8 mph - N/A   Overcast
4:35 PM 71.6 °F 68.0 °F 88% 29.99 in 10.0 mi West 8.1 mph - N/A   Overcast
4:55 PM 71.6 °F 68.0 °F 88% 29.99 in 10.0 mi West 5.8 mph - N/A   Overcast
5:15 PM 71.6 °F 68.0 °F 88% 29.98 in 10.0 mi West 5.8 mph - N/A   Overcast
5:35 PM 71.6 °F 68.0 °F 88% 29.98 in 10.0 mi West 4.6 mph - N/A   Overcast
5:55 PM 71.6 °F 68.0 °F 88% 29.98 in 10.0 mi WSW 6.9 mph - N/A Rain Light Rain
6:15 PM 71.6 °F 69.8 °F 94% 29.97 in 10.0 mi West 5.8 mph - N/A   Overcast
6:35 PM 73.4 °F 69.8 °F 88% 29.96 in 10.0 mi West 3.5 mph - N/A   Overcast
6:55 PM 73.4 °F 68.0 °F 83% 29.96 in 10.0 mi West 3.5 mph - N/A   Mostly Cloudy
7:15 PM 73.4 °F 68.0 °F 83% 29.96 in 10.0 mi NW 4.6 mph - N/A   Overcast
7:35 PM 73.4 °F 68.0 °F 83% 29.96 in 10.0 mi WNW 4.6 mph - N/A   Overcast
7:55 PM 73.4 °F 68.0 °F 83% 29.96 in 10.0 mi WNW 5.8 mph - N/A   Overcast
8:15 PM 71.6 °F 68.0 °F 88% 29.96 in 10.0 mi West 3.5 mph - N/A   Overcast
8:35 PM 71.6 °F 68.0 °F 88% 29.96 in 10.0 mi Calm Calm - N/A   Overcast
8:55 PM 69.8 °F 68.0 °F 94% 29.96 in 10.0 mi NW 3.5 mph - N/A   Overcast
9:15 PM 69.8 °F 66.2 °F 88% 29.97 in 7.0 mi NNW 8.1 mph - N/A   Overcast
9:35 PM 68.0 °F 64.4 °F 88% 29.98 in 5.0 mi NNW 9.2 mph - N/A   Overcast
9:55 PM 68.0 °F 64.4 °F 88% 29.98 in 5.0 mi North 5.8 mph - N/A   Overcast
10:15 PM 68.0 °F 64.4 °F 88% 29.99 in 5.0 mi North 4.6 mph - N/A   Overcast
10:35 PM 66.2 °F 62.6 °F 88% 29.99 in 5.0 mi NNW 3.5 mph - N/A   Overcast
10:55 PM 66.2 °F 62.6 °F 88% 29.99 in 5.0 mi Calm Calm - N/A   Mostly Cloudy
11:15 PM 64.4 °F 62.6 °F 94% 29.99 in 4.0 mi Calm Calm - N/A   Mostly Cloudy
11:35 PM 64.4 °F 62.6 °F 94% 29.99 in 4.0 mi Calm Calm - N/A   Mostly Cloudy
11:55 PM 62.6 °F 60.8 °F 94% 29.99 in 3.0 mi West 4.6 mph - N/A   Scattered Clouds